Location: Quaker Farms
(41.4276°N, 73.1557°W)
Time: 22:47:03
(UTC+00:00)

Vanguard 1 - Pass Details

Date: 13 June 2021
Orbit: 651 x 3832 km, 34.2° (Epoch: 25 July)

Event Time Altitude Azimuth Distance (km) Brightness Sun altitude
Rises 04:28:23 0° 244° (WSW) 7,770 14.5 -25.1°
Reaches altitude 10° 04:34:12 10° 241° (WSW) 6,476 14.0 -25.2°
Maximum altitude 04:52:40 58° 170° (S) 2,667 11.8 -25.3°
Drops below altitude 10° 05:02:56 10° 95° (E) 3,798 13.0 -25.3°
Sets 05:05:25 0° 90° (E) 4,477 13.5 -25.3°
